TimeAKST,TemperatureF,Dew PointF,Humidity,Sea Level PressureIn,VisibilityMPH,Wind Direction,Wind SpeedMPH,Gust SpeedMPH,PrecipitationIn,Events,Conditions,WindDirDegrees,DateUTC
12:08 AM,33.8,33.8,100,29.92,2.5,West,3.5,-,0.01,Snow,Light Snow,270,2013-01-20 09:08:00
12:17 AM,33.8,33.8,100,29.92,3.0,Calm,Calm,-,0.02,Snow,Light Snow,0,2013-01-20 09:17:00
12:31 AM,33.8,32.0,93,29.92,2.5,Calm,Calm,-,0.03,Snow,Light Snow,0,2013-01-20 09:31:00
12:53 AM,33.1,33.1,100,29.92,2.5,Calm,Calm,-,0.05,Snow,Light Snow,0,2013-01-20 09:53:00
1:02 AM,33.8,32.0,93,29.93,3.0,Calm,Calm,-,0.00,Snow,Light Snow,0,2013-01-20 10:02:00
1:53 AM,34.0,32.0,92,29.94,6.0,Calm,Calm,-,0.04,Snow,Light Snow,0,2013-01-20 10:53:00
3:36 AM,35.6,32.0,87,29.93,10.0,NNW,4.6,-,0.02,,Overcast,330,2013-01-20 12:36:00
3:53 AM,36.0,32.0,86,29.91,10.0,NNW,3.5,-,0.03,,Overcast,330,2013-01-20 12:53:00
4:53 AM,34.0,32.0,92,29.90,10.0,ENE,4.6,-,0.02,,Overcast,60,2013-01-20 13:53:00
5:53 AM,34.0,32.0,92,29.88,10.0,Calm,Calm,-,0.01,,Overcast,0,2013-01-20 14:53:00
6:53 AM,34.0,33.1,96,29.88,10.0,Calm,Calm,-,0.01,,Overcast,0,2013-01-20 15:53:00
7:53 AM,36.0,33.1,89,29.88,10.0,North,5.8,-,N/A,,Overcast,10,2013-01-20 16:53:00
8:53 AM,36.0,33.1,89,29.87,10.0,North,11.5,-,0.07,Rain,Light Rain,350,2013-01-20 17:53:00
9:42 AM,37.4,32.0,81,29.86,10.0,North,12.7,-,0.06,,Overcast,350,2013-01-20 18:42:00
9:53 AM,37.0,32.0,82,29.86,10.0,NNW,9.2,-,0.07,,Overcast,340,2013-01-20 18:53:00
10:53 AM,37.0,33.1,86,29.85,10.0,North,8.1,-,0.07,,Overcast,10,2013-01-20 19:53:00
11:51 AM,37.4,33.8,87,29.84,10.0,North,8.1,-,0.05,Rain,Light Rain,10,2013-01-20 20:51:00
11:53 AM,37.0,33.1,86,29.84,10.0,North,8.1,-,0.05,Rain,Light Rain,10,2013-01-20 20:53:00
12:53 PM,37.9,34.0,86,29.84,10.0,NNE,5.8,-,0.05,,Overcast,20,2013-01-20 21:53:00
1:53 PM,37.9,34.0,86,29.83,10.0,North,5.8,-,0.01,,Overcast,10,2013-01-20 22:53:00
2:53 PM,37.9,32.0,79,29.81,10.0,North,11.5,-,N/A,,Overcast,360,2013-01-20 23:53:00
3:53 PM,37.9,32.0,79,29.80,10.0,North,6.9,-,N/A,,Overcast,360,2013-01-21 00:53:00
4:53 PM,36.0,33.1,89,29.82,10.0,Calm,Calm,-,N/A,,Overcast,0,2013-01-21 01:53:00
5:53 PM,37.0,32.0,82,29.81,10.0,North,10.4,-,N/A,,Partly Cloudy,350,2013-01-21 02:53:00
6:53 PM,35.1,32.0,89,29.81,10.0,Calm,Calm,-,N/A,,Clear,0,2013-01-21 03:53:00
7:53 PM,34.0,32.0,92,29.83,10.0,Calm,Calm,-,N/A,,Clear,0,2013-01-21 04:53:00
8:53 PM,30.0,28.9,96,29.83,8.0,Calm,Calm,-,N/A,,Clear,0,2013-01-21 05:53:00
9:53 PM,32.0,30.0,92,29.84,10.0,NNW,4.6,-,N/A,,Clear,340,2013-01-21 06:53:00
10:53 PM,30.9,28.9,92,29.86,9.0,Calm,Calm,-,N/A,,Clear,0,2013-01-21 07:53:00
11:53 PM,28.9,28.0,96,29.86,8.0,North,4.6,-,N/A,,Mostly Cloudy,10,2013-01-21 08:53:00